星链-36611(STARLINK-36611)

导读

STARLINK-36611是由美国发射的星链计划卫星,于2026年2月16日发射升空。它隶属于SpaceX公司打造的星链卫星互联网星座,旨在为全球尤其是偏远地区提供高速低延迟的宽带互联网服务。星链系统通过大规模低轨卫星组网,持续推进部署,该卫星加入后将进一步扩充星座规模,提升全球网络覆盖能力与服务稳定性。

基本信息
目录编号:
67830
目录名称:
STARLINK-36611
国际标识:
2026-033K
轨道中心:
EARTH
卫星名称:
星链-36611
卫星全名:
星链-36611(STARLINK-36611)
卫星状态:
在轨 (已飞行162 天)
发射日期:
2026-02-16 UTC
国别 :
美国 (US)
星等 :
--
轨道信息
数据来源 国际轨道数据
星历时间: 2026-07-27T09:27:54+0800
1天前
查看轨道信息
半长轴: 6861.13km
偏心率: 0.0001229
轨道倾角: 42.999°
近地点辐角 257.857°
升交点赤经 200.427°
平近点角 102.214°
近地点: 482.149km
远地点: 483.837km
周期: 94.266分钟
每日圈数: 15.275988
详细信息
固有亮度:
5
最大亮度:
2.5
卫星平台:
Starlink V1.0
覆盖范围:
全球
运营商:
太空探索技术公司
运营商所在国:
美国
制造商(研发单位):
太空探索技术公司
制造商所在国:
美国
使用方式:
暂无
卫星简介
Starlink 计划是 SpaceX 推出的全球卫星互联网项目,通过发射低轨道卫星,为全球尤其是偏远地区提供高速、低延迟的互联网服务。自 2019 年起,Starlink 已部署数千颗卫星,旨在缩小全球数字鸿沟,推动互联网普及。该项目还为军事、航空等行业提供通信支持,带来广泛经济效益。
2D轨道图
3D轨道图
轨道高度分析图
轨道倾角分析图
轨道综合分析图
查看轨道综合分析图